When you browse on this site, cookies collect data to enhance your experience and personalize the content and advertising you see.
Visit our Privacy Policy to learn more. By continuing to use the site, you agree to this use of cookies and data.
  • In Romania
  • List of Countries
  • For 7 days
  • Water Temperature
  • Satellite Maps
  • Weather Map
  • Weather Widgets
  • user-avatar
    Login

    Hourly Weather Spring Garden

    Today, 20 March, Wednesday

    Time Temperature Precipitation Wind Pressure Humidity
    00:00 +6°C° 0.1 mm 1 mps 640 mmHg 82%
    01:00 +6°C° 0.1 mm 1 mps 640 mmHg 85%
    02:00 +6°C° 1 mm 1 mps 640 mmHg 88%
    03:00 +5°C° 1 mm 2 mps 640 mmHg 92%
    04:00 +4°C° 1 mm 2 mps 640 mmHg 96%
    05:00 +4°C° 0.9 mm 2 mps 641 mmHg 95%
    06:00 +4°C° 0.9 mm 2 mps 641 mmHg 95%
    07:00 +4°C° 0.9 mm 2 mps 642 mmHg 94%
    08:00 +5°C° 0.2 mm 2 mps 642 mmHg 89%
    09:00 +5°C° 0.2 mm 3 mps 643 mmHg 84%
    10:00 +5°C° 0.2 mm 3 mps 643 mmHg 80%
    11:00 +5°C° 0.4 mm 3 mps 643 mmHg 80%
    12:00 +5°C° 0.4 mm 3 mps 643 mmHg 80%
    13:00 +5°C° 0.4 mm 3 mps 643 mmHg 80%
    14:00 +5°C° 0.2 mm 3 mps 643 mmHg 80%
    15:00 +5°C° 0.2 mm 3 mps 643 mmHg 79%
    16:00 +6°C° 0.2 mm 2 mps 643 mmHg 79%
    17:00 +5°C° 0.1 mm 2 mps 643 mmHg 84%
    18:00 +5°C° 0.1 mm 1 mps 643 mmHg 90%
    19:00 +4°C° 0.1 mm 1 mps 643 mmHg 95%
    20:00 +4°C° 0.2 mm 1 mps 643 mmHg 96%
    21:00 +2°C° 0.2 mm 0 mps 644 mmHg 96%
    22:00 +2°C° 0.2 mm 0 mps 644 mmHg 97%
    23:00 +2°C° 0.1 mm 0 mps 644 mmHg 96%

    Tomorrow, 21 March, Thursday

    Time Temperature Precipitation Wind Pressure Humidity
    00:00 +2°C° 0.1 mm 0 mps 644 mmHg 96%
    01:00 +2°C° 0.1 mm 0 mps 644 mmHg 95%
    02:00 +2°C° 0.2 mm 0 mps 644 mmHg 95%
    03:00 +3°C° 0.2 mm 1 mps 644 mmHg 95%
    04:00 +3°C° 0.2 mm 1 mps 644 mmHg 95%
    05:00 +3°C° 0.2 mm 1 mps 644 mmHg 95%
    06:00 +3°C° 0.2 mm 1 mps 645 mmHg 94%
    07:00 +3°C° 0.2 mm 1 mps 645 mmHg 94%
    08:00 +4°C° 0.2 mm 1 mps 645 mmHg 89%
    09:00 +5°C° 0.2 mm 1 mps 646 mmHg 84%
    10:00 +6°C° 0.2 mm 1 mps 646 mmHg 80%
    11:00 +6°C° 0.1 mm 1 mps 646 mmHg 80%
    12:00 +6°C° 0.1 mm 2 mps 646 mmHg 80%
    13:00 +6°C° 0.1 mm 2 mps 645 mmHg 81%
    14:00 +6°C° 0.2 mm 2 mps 645 mmHg 82%
    15:00 +6°C° 0.2 mm 2 mps 645 mmHg 84%
    16:00 +6°C° 0.2 mm 2 mps 645 mmHg 85%
    17:00 +6°C° 0.1 mm 1 mps 645 mmHg 89%
    18:00 +5°C° 0.1 mm 1 mps 645 mmHg 93%
    19:00 +3°C° 0.1 mm 1 mps 645 mmHg 96%
    20:00 +2°C° 0 mm 1 mps 645 mmHg 97%
    21:00 +1°C° 0 mm 1 mps 645 mmHg 97%
    22:00 0°C° 0 mm 1 mps 645 mmHg 97%
    23:00 0°C° 0 mm 1 mps 645 mmHg 97%

    Day after tomorrow, 22 March, Friday

    Time Temperature Precipitation Wind Pressure Humidity
    00:00 0°C° 0 mm 1 mps 645 mmHg 97%
    01:00 -1°C° 0 mm 1 mps 645 mmHg 96%
    02:00 -1°C° 0 mm 1 mps 645 mmHg 96%
    03:00 -1°C° 0 mm 1 mps 645 mmHg 95%
    04:00 -1°C° 0 mm 1 mps 645 mmHg 94%
    05:00 0°C° 0 mm 1 mps 645 mmHg 93%
    06:00 0°C° 0 mm 1 mps 645 mmHg 93%
    07:00 +1°C° 0 mm 1 mps 646 mmHg 92%
    08:00 +3°C° 0 mm 1 mps 646 mmHg 84%
    09:00 +4°C° 0 mm 2 mps 647 mmHg 77%
    10:00 +7°C° 0 mm 2 mps 647 mmHg 69%
    11:00 +7°C° 0 mm 2 mps 647 mmHg 71%
    12:00 +7°C° 0 mm 3 mps 647 mmHg 72%
    13:00 +7°C° 0 mm 3 mps 646 mmHg 73%
    14:00 +5°C° 0.3 mm 3 mps 646 mmHg 77%
    15:00 +5°C° 0.3 mm 2 mps 645 mmHg 81%
    16:00 +4°C° 0.3 mm 2 mps 645 mmHg 85%
    17:00 +3°C° 0.6 mm 2 mps 645 mmHg 89%
    18:00 +4°C° 0.6 mm 1 mps 645 mmHg 92%
    19:00 +3°C° 0.6 mm 1 mps 645 mmHg 96%
    20:00 +3°C° 0.5 mm 1 mps 645 mmHg 96%
    21:00 +3°C° 0.5 mm 1 mps 645 mmHg 96%
    22:00 +3°C° 0.5 mm 1 mps 645 mmHg 96%
    23:00 +3°C° 0.6 mm 1 mps 645 mmHg 96%

    23 March, Saturday

    Time Temperature Precipitation Wind Pressure Humidity
    00:00 +3°C° 0.6 mm 1 mps 645 mmHg 96%
    01:00 +3°C° 0.6 mm 1 mps 645 mmHg 97%
    02:00 +3°C° 0.6 mm 1 mps 645 mmHg 96%
    03:00 +3°C° 0.6 mm 1 mps 645 mmHg 96%
    04:00 +1°C° 0.6 mm 2 mps 645 mmHg 96%
    05:00 +2°C° 0.2 mm 1 mps 645 mmHg 95%
    06:00 +2°C° 0.2 mm 1 mps 645 mmHg 95%
    07:00 +1°C° 0.2 mm 1 mps 646 mmHg 94%
    08:00 +2°C° 0.4 mm 1 mps 646 mmHg 91%
    09:00 +2°C° 0.4 mm 2 mps 646 mmHg 88%
    10:00 +3°C° 0.4 mm 2 mps 646 mmHg 84%
    11:00 +3°C° 0.4 mm 2 mps 646 mmHg 84%
    12:00 +3°C° 0.4 mm 2 mps 646 mmHg 84%
    13:00 +4°C° 0.4 mm 2 mps 646 mmHg 84%
    14:00 +4°C° 0.5 mm 2 mps 646 mmHg 84%
    15:00 +4°C° 0.5 mm 2 mps 646 mmHg 84%
    16:00 +4°C° 0.5 mm 2 mps 646 mmHg 84%
    17:00 +3°C° 0.2 mm 1 mps 646 mmHg 88%
    18:00 +1°C° 0.2 mm 1 mps 646 mmHg 91%
    19:00 -2°C° 0.2 mm 0 mps 646 mmHg 94%
    20:00 -3°C° 0 mm 0 mps 646 mmHg 95%
    21:00 -2°C° 0 mm 1 mps 646 mmHg 96%
    22:00 -3°C° 0 mm 1 mps 646 mmHg 96%
    23:00 -3°C° 0 mm 1 mps 646 mmHg 96%

    24 March, Sunday

    Time Temperature Precipitation Wind Pressure Humidity
    00:00 -3°C° 0 mm 1 mps 646 mmHg 96%
    01:00 -4°C° 0 mm 1 mps 646 mmHg 96%
    02:00 -4°C° 0 mm 1 mps 646 mmHg 95%
    03:00 -4°C° 0 mm 1 mps 646 mmHg 94%
    04:00 -4°C° 0 mm 1 mps 646 mmHg 93%
    05:00 -4°C° 0 mm 1 mps 646 mmHg 91%
    06:00 -3°C° 0 mm 1 mps 647 mmHg 90%
    07:00 -2°C° 0 mm 1 mps 647 mmHg 88%
    08:00 0°C° 0 mm 1 mps 648 mmHg 83%
    09:00 +3°C° 0 mm 1 mps 648 mmHg 78%
    10:00 +6°C° 0 mm 1 mps 649 mmHg 73%
    11:00 +7°C° 0 mm 1 mps 649 mmHg 70%
    12:00 +8°C° 0 mm 1 mps 649 mmHg 66%
    13:00 +9°C° 0 mm 1 mps 648 mmHg 63%
    14:00 +9°C° 0 mm 1 mps 648 mmHg 64%
    15:00 +9°C° 0 mm 1 mps 647 mmHg 65%
    16:00 +8°C° 0 mm 1 mps 647 mmHg 65%
    17:00 +6°C° 0 mm 1 mps 646 mmHg 72%
    18:00 +4°C° 0 mm 1 mps 646 mmHg 78%
    19:00 +1°C° 0 mm 0 mps 645 mmHg 85%
    20:00 +1°C° 0 mm 1 mps 645 mmHg 86%
    21:00 0°C° 0 mm 1 mps 645 mmHg 87%
    22:00 0°C° 0 mm 1 mps 645 mmHg 88%
    23:00 0°C° 0 mm 1 mps 645 mmHg 87%

    25 March, Monday

    Time Temperature Precipitation Wind Pressure Humidity
    00:00 -1°C° 0 mm 1 mps 644 mmHg 87%
    01:00 -3°C° 0 mm 2 mps 644 mmHg 86%
    02:00 -3°C° 0 mm 2 mps 644 mmHg 85%
    03:00 -2°C° 0 mm 2 mps 643 mmHg 83%
    04:00 -2°C° 0 mm 2 mps 643 mmHg 81%
    05:00 -2°C° 0.9 mm 2 mps 643 mmHg 86%
    06:00 -1°C° 0.9 mm 2 mps 643 mmHg 90%
    07:00 +1°C° 0.9 mm 2 mps 643 mmHg 95%
    08:00 0°C° 1.8 mm 3 mps 643 mmHg 94%
    09:00 0°C° 1.8 mm 4 mps 643 mmHg 93%
    10:00 0°C° 1.8 mm 5 mps 643 mmHg 93%
    11:00 0°C° 2.9 mm 4 mps 643 mmHg 94%
    12:00 0°C° 2.9 mm 4 mps 643 mmHg 95%
    13:00 -1°C° 2.9 mm 4 mps 644 mmHg 96%
    14:00 0°C° 0.6 mm 3 mps 644 mmHg 94%
    15:00 0°C° 0.6 mm 3 mps 644 mmHg 93%
    16:00 +2°C° 0.6 mm 2 mps 645 mmHg 92%
    17:00 +1°C° 0.3 mm 2 mps 645 mmHg 93%
    18:00 -1°C° 0.3 mm 2 mps 645 mmHg 95%
    19:00 0°C° 0.3 mm 1 mps 646 mmHg 96%
    20:00 0°C° 0.1 mm 1 mps 646 mmHg 96%
    21:00 0°C° 0.1 mm 1 mps 646 mmHg 97%
    22:00 -1°C° 0.1 mm 1 mps 647 mmHg 97%
    23:00 -2°C° 0 mm 1 mps 647 mmHg 97%
    Show more